Regional Weather Roundup
Issued by NWS

Home | Current Version | Previous Version | Text Only | Print | Product List | Glossary Off
Versions: 1 2 3 4 5 6 7 8 9 10 11 12 13 14 15 16 17 18 19 20 21 22 23 24 25 26 27 28 29 30 31 32 33 34 35 36 37 38 39 40 41 42 43 44 45 46 47 48 49 50

459
ASUS45 KABQ 231310
RWRNM
NEW MEXICO REGIONAL WEATHER ROUNDUP
NATIONAL WEATHER SERVICE ALBUQUERQUE NM
700 AM MDT FRI JUN 23 2017

NOTE: "FAIR" MEANS FEW OR NO CLOUDS BELOW 12,000 FEET AGL WITH NO
       SIGNIFICANT WEATHER OR OBSTRUCTIONS TO VISION.

      THIS PRODUCT IS RELEASED AS TWO VERSIONS.  ONE VERSION NEAR
      THE TOP OF THE HOUR CONTAINING PRELIMINARY DATA FROM ALBUQUERQUE
      AND OTHER STATIONS.  A FINAL VERSION WITH ADDITIONAL DATA IS
      ISSUED ABOUT 10 MINUTES AFTER THE HOUR.

NMZ501-503-504-510>518-231400-
NORTHWEST PLATEAU/NORTHCENTRAL MOUNTAINS

CITY           SKY/WX    TMP DP  RH WIND       PRES   REMARKS
FARMINGTON     FAIR      63  28  26 CALM      30.07R
LOS ALAMOS     FAIR      67  18  15 CALM      30.19R
SANTA FE       FAIR      62  28  27 N9        30.13R
TAOS           FAIR      55  32  41 CALM      30.20R
ANGEL FIRE     FAIR      42  39  89 CALM      30.31S

$$
NMZ402-403-502-505>509-231400-
WESTCENTRAL MOUNTAINS/SOUTHWEST MOUNTAINS

CITY           SKY/WX    TMP DP  RH WIND       PRES   REMARKS
GALLUP         FAIR      54  25  32 E3        30.18R
GRANTS         FAIR      51  19  27 CALM      30.20R
SILVER CITY    FAIR      75  40  28 NW14      30.03R

$$
NMZ407-409-411-412-231400-
SOUTHERN DESERTS

CITY           SKY/WX    TMP DP  RH WIND       PRES   REMARKS
DEMING         FAIR      77  43  29 W7        29.94R
LAS CRUCES     FAIR      84  31  14 NW13G18   29.94S
HOLLOMAN AFB   FAIR      75  38  26 N7        29.91R
ALAMOGORDO     FAIR      81  39  22 NE6       29.91R
T OR C         FAIR      81  30  15 N6        29.98R

$$
NMZ519>523-231400-
CENTRAL VALLEYS/CENTRAL HIGHLANDS

CITY           SKY/WX    TMP DP  RH WIND       PRES   REMARKS
ALBUQUERQUE    FAIR      74  24  15 NE7       30.05R
DOUBLE EAGLE     N/A     61  23  23 N3        30.09R
MORIARTY ARPT  FAIR      56  47  70 CALM      30.15R
CLINES CORNERS FAIR      63  46  54 E12       30.19R
BELEN          FAIR      71  35  26 CALM      30.04R
SOCORRO        FAIR      76  33  21 N3        30.00R

$$
NMZ524>526-539-540-231400-
SOUTHCENTRAL MOUNTAINS

CITY           SKY/WX    TMP DP  RH WIND       PRES   REMARKS
RUIDOSO        FAIR      64  46  52 CALM      30.16R

$$
NMZ527>531-231400-
NORTHEAST HIGHLANDS/NORTHEAST PLAINS

CITY           SKY/WX    TMP DP  RH WIND       PRES   REMARKS
LAS VEGAS      FAIR      56  44  64 N7        30.18R
RATON          FAIR      56  48  74 NE8       30.15R
CLAYTON        FAIR      63  61  93 N17       30.09R

$$
NMZ532>537-231400-
EASTCENTRAL PLAINS

CITY           SKY/WX    TMP DP  RH WIND       PRES   REMARKS
TUCUMCARI      FAIR      68  59  73 NE5       29.97R
CANNON AFB     FAIR      72  58  62 N9        29.98R
CLOVIS AIRPORT FAIR      69  59  70 NE13      29.97R

$$
NMZ028-029-538-231400-
SOUTHEAST PLAINS

CITY           SKY/WX    TMP DP  RH WIND       PRES   REMARKS
ROSWELL        FAIR      76  51  41 NW14      29.89R
ARTESIA        FAIR      77  54  44 NW6       29.89R
CARLSBAD       FAIR      79  58  48 N12       29.84R
HOBBS          MOSUNNY   77  54  44 E7        29.90R


$$




USA.gov is the U.S. government's official web portal to all federal, state and local government web resources and services.